Time,TemperatureF,DewpointF,PressureIn,WindDirection,WindDirectionDegrees,WindSpeedMPH,WindSpeedGustMPH,Humidity,HourlyPrecipIn,Conditions,Clouds,dailyrainin,SoftwareType,DateUTC
2013-02-12 00:00:00,67.3,62.0,30.09,South,183,0.0,1.0,83,0.00,,---,0.00,VWS V14.00,2013-02-12 05:00:00,
2013-02-12 00:01:00,67.3,62.0,30.09,South,184,0.0,1.0,83,0.00,,---,0.00,VWS V14.00,2013-02-12 05:01:00,
2013-02-12 00:02:00,67.3,62.0,30.09,South,184,0.0,0.0,83,0.00,,---,0.00,VWS V14.00,2013-02-12 05:02:00,
2013-02-12 00:07:00,67.2,61.9,30.10,South,184,0.0,0.0,83,0.00,,---,0.00,VWS V14.00,2013-02-12 05:07:00,
2013-02-12 00:12:00,67.2,61.9,30.10,South,184,0.0,0.0,83,0.00,,---,0.00,VWS V14.00,2013-02-12 05:12:00,
2013-02-12 00:17:00,67.1,61.8,30.09,South,184,0.0,0.0,83,0.00,,---,0.00,VWS V14.00,2013-02-12 05:17:00,
2013-02-12 00:22:00,67.1,61.8,30.09,South,184,0.0,0.0,83,0.00,,---,0.00,VWS V14.00,2013-02-12 05:22:00,
2013-02-12 00:27:00,67.0,62.0,30.09,South,184,0.0,0.0,84,0.00,,---,0.00,VWS V14.00,2013-02-12 05:27:00,
2013-02-12 00:30:00,64.3,60.3,30.09,South,183,0.0,0.0,87,0.00,,---,0.00,VWS V14.00,2013-02-12 05:30:00,
2013-02-12 00:32:00,67.0,62.0,30.10,South,183,0.0,0.0,84,0.00,,---,0.00,VWS V14.00,2013-02-12 05:32:00,
2013-02-12 00:37:00,66.9,61.9,30.09,South,183,0.0,0.0,84,0.00,,---,0.00,VWS V14.00,2013-02-12 05:37:00,
2013-02-12 00:42:00,66.8,61.8,30.09,South,184,0.0,0.0,84,0.00,,---,0.00,VWS V14.00,2013-02-12 05:42:00,
2013-02-12 00:47:00,66.6,61.6,30.09,South,184,0.0,0.0,84,0.00,,---,0.00,VWS V14.00,2013-02-12 05:47:00,
2013-02-12 00:52:00,66.3,61.3,30.09,South,183,0.0,0.0,84,0.00,,---,0.00,VWS V14.00,2013-02-12 05:52:00,
2013-02-12 00:57:00,66.0,61.0,30.09,South,184,0.0,0.0,84,0.00,,---,0.00,VWS V14.00,2013-02-12 05:57:00,
2013-02-12 01:00:00,63.6,60.3,30.09,South,184,0.0,0.0,89,0.00,,---,0.00,VWS V14.00,2013-02-12 06:00:00,
2013-02-12 01:02:00,65.7,60.7,30.09,South,184,0.0,0.0,84,0.00,,---,0.00,VWS V14.00,2013-02-12 06:02:00,
2013-02-12 01:07:00,65.4,60.8,30.09,South,184,0.0,0.0,85,0.00,,---,0.00,VWS V14.00,2013-02-12 06:07:00,
2013-02-12 01:12:00,65.1,60.5,30.09,South,183,0.0,0.0,85,0.00,,---,0.00,VWS V14.00,2013-02-12 06:12:00,
2013-02-12 01:17:00,64.9,60.6,30.09,South,184,0.0,0.0,86,0.00,,---,0.00,VWS V14.00,2013-02-12 06:17:00,
2013-02-12 01:23:00,64.7,60.4,30.09,South,183,0.0,0.0,86,0.00,,---,0.00,VWS V14.00,2013-02-12 06:23:00,
2013-02-12 01:28:00,64.5,60.5,30.09,South,183,0.0,0.0,87,0.00,,---,0.00,VWS V14.00,2013-02-12 06:28:00,
2013-02-12 01:30:00,63.7,61.0,30.08,South,184,0.0,0.0,91,0.00,,---,0.00,VWS V14.00,2013-02-12 06:30:00,
2013-02-12 01:33:00,64.3,60.3,30.09,South,183,0.0,0.0,87,0.00,,---,0.00,VWS V14.00,2013-02-12 06:33:00,
2013-02-12 01:38:00,64.0,60.1,30.09,South,183,0.0,0.0,87,0.00,,---,0.00,VWS V14.00,2013-02-12 06:38:00,
2013-02-12 01:43:00,63.9,60.3,30.09,South,184,0.0,0.0,88,0.00,,---,0.00,VWS V14.00,2013-02-12 06:43:00,
2013-02-12 01:48:00,63.7,60.1,30.09,South,183,0.0,0.0,88,0.00,,---,0.00,VWS V14.00,2013-02-12 06:48:00,
2013-02-12 01:53:00,63.6,60.0,30.09,South,184,0.0,0.0,88,0.00,,---,0.00,VWS V14.00,2013-02-12 06:53:00,
2013-02-12 01:58:00,63.6,60.3,30.09,South,184,0.0,0.0,89,0.00,,---,0.00,VWS V14.00,2013-02-12 06:58:00,
2013-02-12 02:00:00,64.3,61.9,30.07,South,183,0.0,1.0,92,0.00,,---,0.00,VWS V14.00,2013-02-12 07:00:00,
2013-02-12 02:03:00,63.6,60.3,30.09,South,184,0.0,0.0,89,0.00,,---,0.00,VWS V14.00,2013-02-12 07:03:00,
2013-02-12 02:08:00,63.6,60.3,30.08,South,184,0.0,0.0,89,0.00,,---,0.00,VWS V14.00,2013-02-12 07:08:00,
2013-02-12 02:13:00,63.5,60.5,30.08,South,183,0.0,0.0,90,0.00,,---,0.00,VWS V14.00,2013-02-12 07:13:00,
2013-02-12 02:18:00,63.5,60.5,30.08,South,184,0.0,0.0,90,0.00,,---,0.00,VWS V14.00,2013-02-12 07:18:00,
2013-02-12 02:23:00,63.5,60.5,30.08,South,183,0.0,0.0,90,0.00,,---,0.00,VWS V14.00,2013-02-12 07:23:00,
2013-02-12 02:28:00,63.6,60.9,30.08,South,183,0.0,0.0,91,0.00,,---,0.00,VWS V14.00,2013-02-12 07:28:00,
2013-02-12 02:30:00,64.1,61.7,30.07,South,184,0.0,1.0,92,0.00,,---,0.00,VWS V14.00,2013-02-12 07:30:00,
2013-02-12 02:33:00,63.8,61.1,30.08,South,184,0.0,1.0,91,0.00,,---,0.00,VWS V14.00,2013-02-12 07:33:00,
2013-02-12 02:38:00,64.0,61.3,30.08,South,183,0.0,1.0,91,0.00,,---,0.00,VWS V14.00,2013-02-12 07:38:00,
2013-02-12 02:43:00,64.1,61.4,30.08,South,184,0.0,1.0,91,0.00,,---,0.00,VWS V14.00,2013-02-12 07:43:00,
2013-02-12 02:48:00,64.3,61.9,30.07,South,184,0.0,1.0,92,0.00,,---,0.00,VWS V14.00,2013-02-12 07:48:00,
2013-02-12 02:53:00,64.3,61.9,30.07,South,184,0.0,1.0,92,0.00,,---,0.00,VWS V14.00,2013-02-12 07:53:00,
2013-02-12 02:59:00,64.3,61.9,30.07,South,183,0.0,1.0,92,0.00,,---,0.00,VWS V14.00,2013-02-12 07:59:00,
2013-02-12 03:00:00,63.7,61.3,30.07,South,183,0.0,0.0,92,0.00,,---,0.00,VWS V14.00,2013-02-12 08:00:00,
2013-02-12 03:04:00,64.3,61.9,30.07,South,184,0.0,0.0,92,0.00,,---,0.00,VWS V14.00,2013-02-12 08:04:00,
2013-02-12 03:09:00,64.4,62.0,30.07,South,184,0.0,0.0,92,0.00,,---,0.00,VWS V14.00,2013-02-12 08:09:00,
2013-02-12 03:14:00,64.4,62.0,30.07,South,184,0.0,1.0,92,0.00,,---,0.00,VWS V14.00,2013-02-12 08:14:00,
2013-02-12 03:19:00,64.4,62.0,30.07,South,184,0.0,1.0,92,0.00,,---,0.00,VWS V14.00,2013-02-12 08:19:00,
2013-02-12 03:24:00,64.2,61.8,30.07,South,183,0.0,1.0,92,0.00,,---,0.00,VWS V14.00,2013-02-12 08:24:00,
2013-02-12 03:29:00,64.1,61.7,30.07,South,184,0.0,1.0,92,0.00,,---,0.00,VWS V14.00,2013-02-12 08:29:00,
2013-02-12 03:30:00,62.9,60.8,30.07,South,184,0.0,0.0,93,0.00,,---,0.00,VWS V14.00,2013-02-12 08:30:00,
2013-02-12 03:34:00,64.1,61.7,30.07,South,184,0.0,0.0,92,0.00,,---,0.00,VWS V14.00,2013-02-12 08:34:00,
2013-02-12 03:39:00,64.1,61.7,30.07,South,183,0.0,0.0,92,0.00,,---,0.00,VWS V14.00,2013-02-12 08:39:00,
2013-02-12 03:44:00,64.0,61.6,30.07,South,183,0.0,0.0,92,0.00,,---,0.00,VWS V14.00,2013-02-12 08:44:00,
2013-02-12 03:49:00,63.9,61.5,30.07,South,183,0.0,0.0,92,0.00,,---,0.00,VWS V14.00,2013-02-12 08:49:00,
2013-02-12 03:54:00,63.9,61.8,30.07,South,184,0.0,0.0,93,0.00,,---,0.00,VWS V14.00,2013-02-12 08:54:00,
2013-02-12 03:59:00,63.8,61.4,30.07,South,184,0.0,0.0,92,0.00,,---,0.00,VWS V14.00,2013-02-12 08:59:00,
2013-02-12 04:00:00,62.2,60.2,30.07,South,184,0.0,0.0,93,0.00,,---,0.00,VWS V14.00,2013-02-12 09:00:00,
2013-02-12 04:04:00,63.6,61.2,30.07,South,184,0.0,0.0,92,0.00,,---,0.00,VWS V14.00,2013-02-12 09:04:00,
2013-02-12 04:09:00,63.6,61.2,30.07,South,184,0.0,0.0,92,0.00,,---,0.00,VWS V14.00,2013-02-12 09:09:00,
2013-02-12 04:14:00,63.5,61.4,30.07,South,183,0.0,0.0,93,0.00,,---,0.00,VWS V14.00,2013-02-12 09:14:00,
2013-02-12 04:20:00,63.4,61.3,30.06,South,184,0.0,0.0,93,0.00,,---,0.00,VWS V14.00,2013-02-12 09:20:00,
2013-02-12 04:25:00,63.2,61.2,30.07,South,184,0.0,0.0,93,0.00,,---,0.00,VWS V14.00,2013-02-12 09:25:00,
2013-02-12 04:30:00,63.0,61.0,30.07,South,184,0.0,0.0,93,0.00,,---,0.00,VWS V14.00,2013-02-12 09:30:00,
2013-02-12 04:35:00,62.8,60.8,30.07,South,183,0.0,0.0,93,0.00,,---,0.00,VWS V14.00,2013-02-12 09:35:00,
2013-02-12 04:40:00,62.6,60.5,30.07,South,183,0.0,0.0,93,0.00,,---,0.00,VWS V14.00,2013-02-12 09:40:00,
2013-02-12 04:45:00,62.4,60.3,30.07,South,183,0.0,0.0,93,0.00,,---,0.00,VWS V14.00,2013-02-12 09:45:00,
2013-02-12 04:50:00,62.4,60.3,30.07,South,183,0.0,0.0,93,0.00,,---,0.00,VWS V14.00,2013-02-12 09:50:00,
2013-02-12 04:55:00,62.3,60.2,30.07,South,183,0.0,0.0,93,0.00,,---,0.00,VWS V14.00,2013-02-12 09:55:00,
2013-02-12 05:00:00,62.2,60.2,30.07,South,184,0.0,0.0,93,0.00,,---,0.00,VWS V14.00,2013-02-12 10:00:00,
2013-02-12 05:05:00,62.2,60.2,30.07,South,184,0.0,0.0,93,0.00,,---,0.00,VWS V14.00,2013-02-12 10:05:00,
2013-02-12 05:10:00,62.0,60.0,30.07,South,184,0.0,0.0,93,0.00,,---,0.00,VWS V14.00,2013-02-12 10:10:00,
2013-02-12 05:15:00,61.9,59.9,30.07,South,183,0.0,0.0,93,0.00,,---,0.00,VWS V14.00,2013-02-12 10:15:00,
2013-02-12 05:20:00,61.8,59.8,30.07,South,184,0.0,0.0,93,0.00,,---,0.00,VWS V14.00,2013-02-12 10:20:00,
2013-02-12 05:25:00,61.7,59.7,30.07,South,183,0.0,0.0,93,0.00,,---,0.00,VWS V14.00,2013-02-12 10:25:00,
2013-02-12 05:30:00,61.5,59.5,30.07,South,184,0.0,0.0,93,0.00,,---,0.00,VWS V14.00,2013-02-12 10:30:00,
2013-02-12 05:35:00,61.4,59.4,30.08,South,183,0.0,0.0,93,0.00,,---,0.00,VWS V14.00,2013-02-12 10:35:00,
2013-02-12 05:40:00,61.2,59.5,30.07,South,184,0.0,0.0,94,0.00,,---,0.00,VWS V14.00,2013-02-12 10:40:00,
2013-02-12 05:45:00,61.1,59.1,30.07,South,183,0.0,0.0,93,0.00,,---,0.00,VWS V14.00,2013-02-12 10:45:00,
2013-02-12 05:51:00,61.0,59.0,30.07,South,184,0.0,0.0,93,0.00,,---,0.00,VWS V14.00,2013-02-12 10:51:00,
2013-02-12 05:56:00,60.9,59.2,30.08,South,183,0.0,0.0,94,0.00,,---,0.00,VWS V14.00,2013-02-12 10:56:00,
2013-02-12 06:00:00,61.0,59.3,30.09,South,183,0.0,0.0,94,0.00,,---,0.00,VWS V14.00,2013-02-12 11:00:00,
2013-02-12 06:01:00,61.0,59.3,30.08,South,184,0.0,0.0,94,0.00,,---,0.00,VWS V14.00,2013-02-12 11:01:00,
2013-02-12 06:06:00,61.1,59.4,30.08,South,184,0.0,0.0,94,0.00,,---,0.00,VWS V14.00,2013-02-12 11:06:00,
2013-02-12 06:11:00,61.2,59.5,30.08,South,183,0.0,0.0,94,0.00,,---,0.00,VWS V14.00,2013-02-12 11:11:00,
2013-02-12 06:16:00,61.2,59.5,30.07,South,184,0.0,0.0,94,0.00,,---,0.00,VWS V14.00,2013-02-12 11:16:00,
2013-02-12 06:21:00,61.2,59.5,30.07,South,184,0.0,0.0,94,0.00,,---,0.00,VWS V14.00,2013-02-12 11:21:00,
2013-02-12 06:26:00,61.1,59.4,30.08,South,183,0.0,0.0,94,0.00,,---,0.00,VWS V14.00,2013-02-12 11:26:00,
2013-02-12 06:30:00,61.2,59.8,30.09,South,184,0.0,0.0,95,0.00,,---,0.00,VWS V14.00,2013-02-12 11:30:00,
2013-02-12 06:31:00,61.1,59.4,30.08,South,184,0.0,0.0,94,0.00,,---,0.00,VWS V14.00,2013-02-12 11:31:00,
2013-02-12 06:36:00,61.0,59.3,30.08,South,183,0.0,0.0,94,0.00,,---,0.00,VWS V14.00,2013-02-12 11:36:00,
2013-02-12 06:41:00,61.0,59.3,30.08,South,184,0.0,0.0,94,0.00,,---,0.00,VWS V14.00,2013-02-12 11:41:00,
2013-02-12 06:46:00,60.9,59.2,30.08,South,184,0.0,0.0,94,0.00,,---,0.00,VWS V14.00,2013-02-12 11:46:00,
2013-02-12 06:51:00,61.0,59.3,30.08,South,183,0.0,0.0,94,0.00,,---,0.00,VWS V14.00,2013-02-12 11:51:00,
2013-02-12 06:56:00,60.9,59.2,30.09,South,184,0.0,0.0,94,0.00,,---,0.00,VWS V14.00,2013-02-12 11:56:00,
2013-02-12 07:00:00,62.9,61.5,30.09,South,183,0.0,2.0,95,0.00,,---,0.00,VWS V14.00,2013-02-12 12:00:00,
2013-02-12 07:01:00,61.0,59.3,30.09,South,183,0.0,0.0,94,0.00,,---,0.00,VWS V14.00,2013-02-12 12:01:00,
2013-02-12 07:06:00,61.0,59.3,30.09,South,184,0.0,0.0,94,0.00,,---,0.00,VWS V14.00,2013-02-12 12:06:00,
2013-02-12 07:11:00,61.0,59.6,30.09,South,184,0.0,0.0,95,0.00,,---,0.00,VWS V14.00,2013-02-12 12:11:00,
2013-02-12 07:17:00,61.1,59.7,30.09,South,184,0.0,0.0,95,0.00,,---,0.00,VWS V14.00,2013-02-12 12:17:00,
2013-02-12 07:22:00,61.1,59.7,30.09,South,184,0.0,0.0,95,0.00,,---,0.00,VWS V14.00,2013-02-12 12:22:00,
2013-02-12 07:27:00,61.1,59.7,30.09,South,183,0.0,0.0,95,0.00,,---,0.00,VWS V14.00,2013-02-12 12:27:00,
2013-02-12 07:30:00,65.1,63.9,30.10,SW,219,2.0,6.0,96,0.00,,---,0.00,VWS V14.00,2013-02-12 12:30:00,
2013-02-12 07:32:00,61.3,59.9,30.09,South,184,0.0,0.0,95,0.00,,---,0.00,VWS V14.00,2013-02-12 12:32:00,
2013-02-12 07:37:00,61.3,59.9,30.09,South,184,0.0,0.0,95,0.00,,---,0.00,VWS V14.00,2013-02-12 12:37:00,
2013-02-12 07:42:00,61.4,60.0,30.09,South,183,0.0,0.0,95,0.00,,---,0.00,VWS V14.00,2013-02-12 12:42:00,
2013-02-12 07:47:00,61.7,60.3,30.09,South,184,0.0,2.0,95,0.00,,---,0.00,VWS V14.00,2013-02-12 12:47:00,
2013-02-12 07:52:00,62.1,60.7,30.09,South,184,0.0,2.0,95,0.00,,---,0.00,VWS V14.00,2013-02-12 12:52:00,
2013-02-12 07:57:00,62.6,61.2,30.09,South,184,1.0,2.0,95,0.00,,---,0.00,VWS V14.00,2013-02-12 12:57:00,
2013-02-12 08:00:00,67.2,65.4,30.10,SSW,198,0.0,5.0,94,0.00,,---,0.00,VWS V14.00,2013-02-12 13:00:00,
2013-02-12 08:02:00,63.0,61.5,30.09,South,184,0.0,0.0,95,0.00,,---,0.00,VWS V14.00,2013-02-12 13:02:00,
2013-02-12 08:07:00,63.4,62.0,30.09,South,184,0.0,2.0,95,0.00,,---,0.00,VWS V14.00,2013-02-12 13:07:00,
2013-02-12 08:12:00,63.7,62.2,30.09,SW,217,0.0,3.0,95,0.00,,---,0.00,VWS V14.00,2013-02-12 13:12:00,
2013-02-12 08:17:00,64.1,62.6,30.09,SW,214,0.0,3.0,95,0.00,,---,0.00,VWS V14.00,2013-02-12 13:17:00,
2013-02-12 08:22:00,64.5,63.3,30.09,South,177,0.0,3.0,96,0.00,,---,0.00,VWS V14.00,2013-02-12 13:22:00,
2013-02-12 08:27:00,64.8,63.3,30.10,SSW,194,1.0,6.0,95,0.00,,---,0.00,VWS V14.00,2013-02-12 13:27:00,
2013-02-12 08:30:00,70.3,66.9,30.10,WSW,248,0.0,11.0,89,0.00,,---,0.00,VWS V14.00,2013-02-12 13:30:00,
2013-02-12 08:32:00,65.2,64.0,30.10,SSW,199,0.0,4.0,96,0.00,,---,0.00,VWS V14.00,2013-02-12 13:32:00,
2013-02-12 08:37:00,65.4,63.9,30.10,SW,236,0.0,4.0,95,0.00,,---,0.00,VWS V14.00,2013-02-12 13:37:00,
2013-02-12 08:42:00,65.6,64.1,30.10,South,176,0.0,4.0,95,0.00,,---,0.00,VWS V14.00,2013-02-12 13:42:00,
2013-02-12 08:47:00,65.9,64.4,30.10,South,176,0.0,4.0,95,0.00,,---,0.00,VWS V14.00,2013-02-12 13:47:00,
2013-02-12 08:52:00,66.3,64.8,30.10,South,178,2.0,4.0,95,0.00,,---,0.00,VWS V14.00,2013-02-12 13:52:00,
2013-02-12 08:57:00,66.8,65.3,30.11,WSW,248,0.0,5.0,95,0.00,,---,0.00,VWS V14.00,2013-02-12 13:57:00,
2013-02-12 09:00:00,72.5,67.4,30.10,SSW,202,0.0,11.0,84,0.00,,---,0.00,VWS V14.00,2013-02-12 14:00:00,
2013-02-12 09:02:00,67.4,65.6,30.10,South,191,0.0,5.0,94,0.00,,---,0.00,VWS V14.00,2013-02-12 14:02:00,
2013-02-12 09:07:00,68.1,66.3,30.11,South,190,0.0,10.0,94,0.00,,---,0.00,VWS V14.00,2013-02-12 14:07:00,
2013-02-12 09:12:00,68.7,66.6,30.10,SSW,198,2.0,10.0,93,0.00,,---,0.00,VWS V14.00,2013-02-12 14:12:00,
2013-02-12 09:17:00,69.2,66.8,30.10,SW,234,0.0,10.0,92,0.00,,---,0.00,VWS V14.00,2013-02-12 14:17:00,
2013-02-12 09:23:00,69.6,66.5,30.10,SSE,150,0.0,10.0,90,0.00,,---,0.00,VWS V14.00,2013-02-12 14:23:00,
2013-02-12 09:28:00,70.0,66.6,30.10,SE,126,2.0,11.0,89,0.00,,---,0.00,VWS V14.00,2013-02-12 14:28:00,
2013-02-12 09:30:00,74.6,67.3,30.10,SW,227,0.0,11.0,78,0.00,,---,0.00,VWS V14.00,2013-02-12 14:30:00,
2013-02-12 09:33:00,70.5,66.8,30.10,SW,236,1.0,7.0,88,0.00,,---,0.00,VWS V14.00,2013-02-12 14:33:00,
2013-02-12 09:38:00,71.0,67.3,30.10,South,187,5.0,7.0,88,0.00,,---,0.00,VWS V14.00,2013-02-12 14:38:00,
2013-02-12 09:43:00,71.3,67.2,30.10,SSW,211,0.0,7.0,87,0.00,,---,0.00,VWS V14.00,2013-02-12 14:43:00,
2013-02-12 09:48:00,71.7,67.3,30.10,WSW,254,3.0,11.0,86,0.00,,---,0.00,VWS V14.00,2013-02-12 14:48:00,
2013-02-12 09:53:00,72.2,67.4,30.10,South,182,0.0,11.0,85,0.00,,---,0.00,VWS V14.00,2013-02-12 14:53:00,
2013-02-12 09:58:00,72.3,67.5,30.10,SW,230,4.0,11.0,85,0.00,,---,0.00,VWS V14.00,2013-02-12 14:58:00,
2013-02-12 10:00:00,76.4,67.1,30.09,South,175,0.0,13.0,73,0.00,,---,0.00,VWS V14.00,2013-02-12 15:00:00,
2013-02-12 10:03:00,72.6,67.5,30.10,SW,227,0.0,6.0,84,0.00,,---,0.00,VWS V14.00,2013-02-12 15:03:00,
2013-02-12 10:08:00,73.0,67.5,30.10,WSW,238,0.0,11.0,83,0.00,,---,0.00,VWS V14.00,2013-02-12 15:08:00,
2013-02-12 10:13:00,73.4,67.6,30.10,SW,232,0.0,11.0,82,0.00,,---,0.00,VWS V14.00,2013-02-12 15:13:00,
2013-02-12 10:18:00,74.1,67.9,30.10,WSW,249,0.0,11.0,81,0.00,,---,0.00,VWS V14.00,2013-02-12 15:18:00,
2013-02-12 10:23:00,74.6,67.7,30.10,South,187,6.0,11.0,79,0.00,,---,0.00,VWS V14.00,2013-02-12 15:23:00,
2013-02-12 10:28:00,74.5,67.6,30.10,South,178,3.0,11.0,79,0.00,,---,0.00,VWS V14.00,2013-02-12 15:28:00,
2013-02-12 10:30:00,78.7,67.3,30.08,WSW,248,2.0,9.0,68,0.00,,---,0.00,VWS V14.00,2013-02-12 15:30:00,
2013-02-12 10:33:00,74.6,67.3,30.10,West,267,4.0,9.0,78,0.00,,---,0.00,VWS V14.00,2013-02-12 15:33:00,
2013-02-12 10:38:00,75.0,67.3,30.10,WSW,240,3.0,9.0,77,0.00,,---,0.00,VWS V14.00,2013-02-12 15:38:00,
2013-02-12 10:43:00,75.4,67.3,30.10,SSW,192,3.0,10.0,76,0.00,,---,0.00,VWS V14.00,2013-02-12 15:43:00,
2013-02-12 10:48:00,75.6,67.1,30.10,SW,221,1.0,12.0,75,0.00,,---,0.00,VWS V14.00,2013-02-12 15:48:00,
2013-02-12 10:54:00,75.8,66.9,30.10,SE,146,3.0,13.0,74,0.00,,---,0.00,VWS V14.00,2013-02-12 15:54:00,
2013-02-12 10:59:00,76.2,66.9,30.09,SSW,204,0.0,13.0,73,0.00,,---,0.00,VWS V14.00,2013-02-12 15:59:00,
2013-02-12 11:00:00,80.7,66.5,30.06,West,261,1.0,7.0,62,0.00,,---,0.00,VWS V14.00,2013-02-12 16:00:00,
2013-02-12 11:04:00,76.6,66.9,30.09,SW,217,0.0,6.0,72,0.00,,---,0.00,VWS V14.00,2013-02-12 16:04:00,
2013-02-12 11:09:00,77.1,67.4,30.09,SE,127,5.0,6.0,72,0.00,,---,0.00,VWS V14.00,2013-02-12 16:09:00,
2013-02-12 11:14:00,77.5,67.4,30.08,WSW,254,0.0,7.0,71,0.00,,---,0.00,VWS V14.00,2013-02-12 16:14:00,
2013-02-12 11:19:00,77.6,67.5,30.08,SSW,202,3.0,9.0,71,0.00,,---,0.00,VWS V14.00,2013-02-12 16:19:00,
2013-02-12 11:24:00,78.0,67.0,30.08,WSW,237,3.0,9.0,69,0.00,,---,0.00,VWS V14.00,2013-02-12 16:24:00,
2013-02-12 11:29:00,78.6,67.6,30.08,SSE,167,5.0,9.0,69,0.00,,---,0.00,VWS V14.00,2013-02-12 16:29:00,
2013-02-12 11:30:00,81.8,65.6,30.04,WSW,257,0.0,7.0,58,0.00,,---,0.00,VWS V14.00,2013-02-12 16:30:00,
2013-02-12 11:34:00,79.1,67.6,30.08,South,172,0.0,6.0,68,0.00,,---,0.00,VWS V14.00,2013-02-12 16:34:00,
2013-02-12 11:39:00,79.7,67.3,30.08,SSW,213,0.0,6.0,66,0.00,,---,0.00,VWS V14.00,2013-02-12 16:39:00,
2013-02-12 11:44:00,80.2,67.8,30.07,West,259,0.0,6.0,66,0.00,,---,0.00,VWS V14.00,2013-02-12 16:44:00,
2013-02-12 11:49:00,80.5,67.2,30.07,SSW,198,0.0,6.0,64,0.00,,---,0.00,VWS V14.00,2013-02-12 16:49:00,
2013-02-12 11:54:00,80.7,66.9,30.07,SSW,209,5.0,6.0,63,0.00,,---,0.00,VWS V14.00,2013-02-12 16:54:00,
2013-02-12 11:59:00,80.6,66.8,30.06,SSW,197,0.0,7.0,63,0.00,,---,0.00,VWS V14.00,2013-02-12 16:59:00,
2013-02-12 12:00:00,83.0,64.7,30.02,SSW,208,0.0,11.0,54,0.00,,---,0.00,VWS V14.00,2013-02-12 17:00:00,
2013-02-12 12:04:00,81.2,66.5,30.06,SW,227,3.0,4.0,61,0.00,,---,0.00,VWS V14.00,2013-02-12 17:04:00,
2013-02-12 12:09:00,81.1,66.9,30.06,SSW,200,3.0,7.0,62,0.00,,---,0.00,VWS V14.00,2013-02-12 17:09:00,
2013-02-12 12:14:00,81.3,65.6,30.06,WSW,249,2.0,7.0,59,0.00,,---,0.00,VWS V14.00,2013-02-12 17:14:00,
2013-02-12 12:19:00,81.4,65.7,30.05,SW,230,0.0,7.0,59,0.00,,---,0.00,VWS V14.00,2013-02-12 17:19:00,
2013-02-12 12:24:00,82.0,65.8,30.05,SE,145,0.0,7.0,58,0.00,,---,0.00,VWS V14.00,2013-02-12 17:24:00,
2013-02-12 12:30:00,81.9,65.7,30.04,SSW,202,3.0,7.0,58,0.00,,---,0.00,VWS V14.00,2013-02-12 17:30:00,
2013-02-12 12:35:00,82.1,64.9,30.04,West,271,1.0,6.0,56,0.00,,---,0.00,VWS V14.00,2013-02-12 17:35:00,
2013-02-12 12:40:00,82.5,65.2,30.03,WSW,247,3.0,7.0,56,0.00,,---,0.00,VWS V14.00,2013-02-12 17:40:00,
2013-02-12 12:45:00,82.7,64.4,30.03,SSW,207,0.0,10.0,54,0.00,,---,0.00,VWS V14.00,2013-02-12 17:45:00,
2013-02-12 12:50:00,82.7,63.3,30.03,SW,231,0.0,10.0,52,0.00,,---,0.00,VWS V14.00,2013-02-12 17:50:00,
2013-02-12 12:55:00,82.8,63.4,30.02,WSW,249,0.0,11.0,52,0.00,,---,0.00,VWS V14.00,2013-02-12 17:55:00,
2013-02-12 13:00:00,83.0,64.7,30.02,SW,223,4.0,11.0,54,0.00,,---,0.00,VWS V14.00,2013-02-12 18:00:00,
2013-02-12 13:05:00,83.0,64.1,30.02,SW,230,4.0,5.0,53,0.00,,---,0.00,VWS V14.00,2013-02-12 18:05:00,
2013-02-12 13:10:00,82.5,64.2,30.01,SSE,159,6.0,7.0,54,0.00,,---,0.00,VWS V14.00,2013-02-12 18:10:00,
2013-02-12 13:15:00,82.2,64.4,30.01,SE,128,0.0,7.0,55,0.00,,---,0.00,VWS V14.00,2013-02-12 18:15:00,
2013-02-12 13:20:00,82.8,64.5,30.01,West,273,0.0,7.0,54,0.00,,---,0.00,VWS V14.00,2013-02-12 18:20:00,
2013-02-12 13:25:00,84.2,64.7,30.00,SSW,194,0.0,7.0,52,0.00,,---,0.00,VWS V14.00,2013-02-12 18:25:00,
2013-02-12 13:30:00,85.3,64.6,30.00,WSW,257,0.0,7.0,50,0.00,,---,0.00,VWS V14.00,2013-02-12 18:30:00,
2013-02-12 13:35:00,85.1,64.4,30.00,ESE,114,0.0,8.0,50,0.00,,---,0.00,VWS V14.00,2013-02-12 18:35:00,
2013-02-12 13:40:00,84.8,64.1,29.99,South,169,3.0,8.0,50,0.00,,---,0.00,VWS V14.00,2013-02-12 18:40:00,
2013-02-12 13:45:00,85.1,63.2,29.99,WSW,252,0.0,8.0,48,0.00,,---,0.00,VWS V14.00,2013-02-12 18:45:00,
2013-02-12 13:50:00,85.3,64.6,29.98,WSW,254,0.0,8.0,50,0.00,,---,0.00,VWS V14.00,2013-02-12 18:50:00,
2013-02-12 13:55:00,85.7,64.4,29.98,SW,226,0.0,8.0,49,0.00,,---,0.00,VWS V14.00,2013-02-12 18:55:00,
2013-02-12 14:00:00,86.1,64.1,29.96,SW,219,0.0,10.0,48,0.00,,---,0.00,VWS V14.00,2013-02-12 19:00:00,
2013-02-12 14:01:00,85.9,64.5,29.98,WNW,284,0.0,8.0,49,0.00,,---,0.00,VWS V14.00,2013-02-12 19:01:00,
2013-02-12 14:06:00,86.0,64.6,29.98,WSW,244,0.0,5.0,49,0.00,,---,0.00,VWS V14.00,2013-02-12 19:06:00,
2013-02-12 14:11:00,85.4,63.5,29.98,SW,224,7.0,7.0,48,0.00,,---,0.00,VWS V14.00,2013-02-12 19:11:00,
2013-02-12 14:16:00,85.2,63.9,29.97,SW,215,0.0,7.0,49,0.00,,---,0.00,VWS V14.00,2013-02-12 19:16:00,
2013-02-12 14:21:00,85.9,63.3,29.97,South,180,0.0,7.0,47,0.00,,---,0.00,VWS V14.00,2013-02-12 19:21:00,
2013-02-12 14:26:00,86.2,63.6,29.97,WSW,238,2.0,9.0,47,0.00,,---,0.00,VWS V14.00,2013-02-12 19:26:00,
2013-02-12 14:30:00,84.0,63.9,29.95,SW,230,0.0,8.0,51,0.00,,---,0.00,VWS V14.00,2013-02-12 19:30:00,
2013-02-12 14:31:00,86.5,64.5,29.97,SSE,167,1.0,9.0,48,0.00,,---,0.00,VWS V14.00,2013-02-12 19:31:00,
2013-02-12 14:36:00,86.5,63.9,29.96,SW,219,3.0,9.0,47,0.00,,---,0.00,VWS V14.00,2013-02-12 19:36:00,
2013-02-12 14:41:00,85.8,63.9,29.96,South,178,0.0,9.0,48,0.00,,---,0.00,VWS V14.00,2013-02-12 19:41:00,
2013-02-12 14:46:00,85.7,63.8,29.96,SSW,208,4.0,9.0,48,0.00,,---,0.00,VWS V14.00,2013-02-12 19:46:00,
2013-02-12 14:51:00,85.6,64.3,29.96,West,265,0.0,10.0,49,0.00,,---,0.00,VWS V14.00,2013-02-12 19:51:00,
2013-02-12 14:56:00,86.2,64.2,29.96,South,172,0.0,10.0,48,0.00,,---,0.00,VWS V14.00,2013-02-12 19:56:00,
2013-02-12 15:00:00,83.7,64.2,29.93,WSW,241,0.0,13.0,52,0.00,,---,0.00,VWS V14.00,2013-02-12 20:00:00,
2013-02-12 15:01:00,86.1,64.1,29.96,SW,219,0.0,0.0,48,0.00,,---,0.00,VWS V14.00,2013-02-12 20:01:00,
2013-02-12 15:06:00,86.0,64.0,29.96,West,262,3.0,6.0,48,0.00,,---,0.00,VWS V14.00,2013-02-12 20:06:00,
2013-02-12 15:11:00,85.4,64.1,29.96,West,277,0.0,8.0,49,0.00,,---,0.00,VWS V14.00,2013-02-12 20:11:00,
2013-02-12 15:16:00,85.3,64.0,29.96,West,261,0.0,8.0,49,0.00,,---,0.00,VWS V14.00,2013-02-12 20:16:00,
2013-02-12 15:21:00,85.0,63.7,29.96,SW,219,0.0,8.0,49,0.00,,---,0.00,VWS V14.00,2013-02-12 20:21:00,
2013-02-12 15:26:00,84.5,63.8,29.95,South,180,0.0,8.0,50,0.00,,---,0.00,VWS V14.00,2013-02-12 20:26:00,
2013-02-12 15:30:00,83.0,63.6,29.94,SW,223,0.0,9.0,52,0.00,,---,0.00,VWS V14.00,2013-02-12 20:30:00,
2013-02-12 15:31:00,83.9,63.8,29.95,SW,230,0.0,0.0,51,0.00,,---,0.00,VWS V14.00,2013-02-12 20:31:00,
2013-02-12 15:36:00,84.1,64.0,29.95,SSW,211,0.0,2.0,51,0.00,,---,0.00,VWS V14.00,2013-02-12 20:36:00,
2013-02-12 15:41:00,84.2,63.6,29.95,South,180,1.0,13.0,50,0.00,,---,0.00,VWS V14.00,2013-02-12 20:41:00,
2013-02-12 15:47:00,83.9,63.3,29.95,SSW,194,0.0,13.0,50,0.00,,---,0.00,VWS V14.00,2013-02-12 20:47:00,
2013-02-12 15:52:00,83.7,63.7,29.94,SSW,213,0.0,13.0,51,0.00,,---,0.00,VWS V14.00,2013-02-12 20:52:00,
2013-02-12 15:57:00,83.5,64.0,29.94,West,261,3.0,13.0,52,0.00,,---,0.00,VWS V14.00,2013-02-12 20:57:00,
2013-02-12 16:00:00,83.1,63.1,29.93,SW,229,0.0,9.0,51,0.00,,---,0.00,VWS V14.00,2013-02-12 21:00:00,
2013-02-12 16:02:00,83.7,63.7,29.93,SW,226,0.0,2.0,51,0.00,,---,0.00,VWS V14.00,2013-02-12 21:02:00,
2013-02-12 16:07:00,84.2,63.6,29.93,SSW,206,0.0,9.0,50,0.00,,---,0.00,VWS V14.00,2013-02-12 21:07:00,
2013-02-12 16:12:00,83.9,63.3,29.94,SW,223,0.0,9.0,50,0.00,,---,0.00,VWS V14.00,2013-02-12 21:12:00,
2013-02-12 16:17:00,83.5,63.5,29.94,SW,233,4.0,9.0,51,0.00,,---,0.00,VWS V14.00,2013-02-12 21:17:00,
2013-02-12 16:22:00,83.2,63.2,29.94,SW,214,0.0,9.0,51,0.00,,---,0.00,VWS V14.00,2013-02-12 21:22:00,
2013-02-12 16:27:00,83.0,63.6,29.94,WSW,237,0.0,9.0,52,0.00,,---,0.00,VWS V14.00,2013-02-12 21:27:00,
2013-02-12 16:30:00,82.0,63.7,29.93,SW,230,0.0,3.0,54,0.00,,---,0.00,VWS V14.00,2013-02-12 21:30:00,
2013-02-12 16:32:00,83.0,63.6,29.94,SW,223,0.0,0.0,52,0.00,,---,0.00,VWS V14.00,2013-02-12 21:32:00,
2013-02-12 16:37:00,83.1,63.7,29.93,SSW,202,0.0,1.0,52,0.00,,---,0.00,VWS V14.00,2013-02-12 21:37:00,
2013-02-12 16:42:00,83.0,63.6,29.94,SW,214,0.0,1.0,52,0.00,,---,0.00,VWS V14.00,2013-02-12 21:42:00,
2013-02-12 16:47:00,83.2,63.8,29.94,WSW,242,0.0,4.0,52,0.00,,---,0.00,VWS V14.00,2013-02-12 21:47:00,
2013-02-12 16:52:00,83.6,63.6,29.94,SW,234,0.0,8.0,51,0.00,,---,0.00,VWS V14.00,2013-02-12 21:52:00,
2013-02-12 16:57:00,83.4,63.4,29.94,WSW,237,0.0,8.0,51,0.00,,---,0.00,VWS V14.00,2013-02-12 21:57:00,
2013-02-12 17:00:00,80.9,63.8,29.93,SSW,209,0.0,4.0,56,0.00,,---,0.00,VWS V14.00,2013-02-12 22:00:00,
2013-02-12 17:03:00,83.0,63.0,29.93,WSW,242,0.0,3.0,51,0.00,,---,0.00,VWS V14.00,2013-02-12 22:03:00,
2013-02-12 17:08:00,82.8,63.4,29.93,South,175,0.0,3.0,52,0.00,,---,0.00,VWS V14.00,2013-02-12 22:08:00,
2013-02-12 17:13:00,82.9,64.0,29.93,SW,236,0.0,3.0,53,0.00,,---,0.00,VWS V14.00,2013-02-12 22:13:00,
2013-02-12 17:18:00,82.7,63.8,29.93,SW,230,0.0,3.0,53,0.00,,---,0.00,VWS V14.00,2013-02-12 22:18:00,
2013-02-12 17:23:00,82.4,63.6,29.93,SSE,161,0.0,3.0,53,0.00,,---,0.00,VWS V14.00,2013-02-12 22:23:00,
2013-02-12 17:28:00,82.1,63.3,29.93,SW,230,0.0,3.0,53,0.00,,---,0.00,VWS V14.00,2013-02-12 22:28:00,
2013-02-12 17:30:00,79.4,63.8,29.93,SSW,209,0.0,1.0,59,0.00,,---,0.00,VWS V14.00,2013-02-12 22:30:00,
2013-02-12 17:33:00,81.9,63.6,29.93,WSW,238,0.0,1.0,54,0.00,,---,0.00,VWS V14.00,2013-02-12 22:33:00,
2013-02-12 17:38:00,81.6,63.4,29.93,SSW,213,0.0,4.0,54,0.00,,---,0.00,VWS V14.00,2013-02-12 22:38:00,
2013-02-12 17:43:00,81.5,63.8,29.93,SSW,213,0.0,4.0,55,0.00,,---,0.00,VWS V14.00,2013-02-12 22:43:00,
2013-02-12 17:48:00,81.3,63.6,29.93,SSW,213,0.0,4.0,55,0.00,,---,0.00,VWS V14.00,2013-02-12 22:48:00,
2013-02-12 17:53:00,81.2,63.5,29.93,SSW,209,0.0,4.0,55,0.00,,---,0.00,VWS V14.00,2013-02-12 22:53:00,
2013-02-12 17:58:00,81.1,63.4,29.93,SSW,209,0.0,4.0,55,0.00,,---,0.00,VWS V14.00,2013-02-12 22:58:00,
2013-02-12 18:00:00,78.7,63.7,29.93,SW,236,0.0,6.0,60,0.00,,---,0.00,VWS V14.00,2013-02-12 23:00:00,
2013-02-12 18:03:00,80.9,63.8,29.93,SSW,209,0.0,0.0,56,0.00,,---,0.00,VWS V14.00,2013-02-12 23:03:00,
2013-02-12 18:08:00,80.7,63.6,29.93,SSW,209,0.0,0.0,56,0.00,,---,0.00,VWS V14.00,2013-02-12 23:08:00,
2013-02-12 18:13:00,80.5,63.4,29.93,SSW,209,0.0,0.0,56,0.00,,---,0.00,VWS V14.00,2013-02-12 23:13:00,
2013-02-12 18:18:00,80.3,63.7,29.93,SSW,209,0.0,1.0,57,0.00,,---,0.00,VWS V14.00,2013-02-12 23:18:00,
2013-02-12 18:23:00,80.0,63.9,29.93,SSW,209,0.0,1.0,58,0.00,,---,0.00,VWS V14.00,2013-02-12 23:23:00,
2013-02-12 18:28:00,79.6,63.5,29.93,SSW,209,0.0,1.0,58,0.00,,---,0.00,VWS V14.00,2013-02-12 23:28:00,
2013-02-12 18:30:00,78.1,64.5,29.93,SW,232,0.0,3.0,63,0.00,,---,0.00,VWS V14.00,2013-02-12 23:30:00,
2013-02-12 18:33:00,79.1,63.6,29.93,SSW,209,0.0,0.0,59,0.00,,---,0.00,VWS V14.00,2013-02-12 23:33:00,
2013-02-12 18:38:00,78.7,63.7,29.93,SSW,209,0.0,0.0,60,0.00,,---,0.00,VWS V14.00,2013-02-12 23:38:00,
2013-02-12 18:44:00,78.4,63.4,29.93,SSW,209,0.0,0.0,60,0.00,,---,0.00,VWS V14.00,2013-02-12 23:44:00,
2013-02-12 18:49:00,78.3,63.8,29.93,SSW,209,0.0,0.0,61,0.00,,---,0.00,VWS V14.00,2013-02-12 23:49:00,
2013-02-12 18:54:00,78.4,63.8,29.93,SSW,209,0.0,0.0,61,0.00,,---,0.00,VWS V14.00,2013-02-12 23:54:00,
2013-02-12 18:59:00,78.6,64.0,29.93,SW,236,0.0,6.0,61,0.00,,---,0.00,VWS V14.00,2013-02-12 23:59:00,
2013-02-12 19:00:00,77.2,65.4,29.94,SSW,211,0.0,5.0,67,0.00,,---,0.00,VWS V14.00,2013-02-13 00:00:00,
2013-02-12 19:04:00,78.7,63.7,29.93,SW,236,0.0,0.0,60,0.00,,---,0.00,VWS V14.00,2013-02-13 00:04:00,
2013-02-12 19:09:00,78.7,64.1,29.93,SW,236,0.0,0.0,61,0.00,,---,0.00,VWS V14.00,2013-02-13 00:09:00,
2013-02-12 19:14:00,78.5,64.0,29.93,SW,236,0.0,0.0,61,0.00,,---,0.00,VWS V14.00,2013-02-13 00:14:00,
2013-02-12 19:19:00,78.3,63.8,29.93,SW,236,0.0,3.0,61,0.00,,---,0.00,VWS V14.00,2013-02-13 00:19:00,
2013-02-12 19:24:00,78.2,64.1,29.93,SW,222,2.0,3.0,62,0.00,,---,0.00,VWS V14.00,2013-02-13 00:24:00,
2013-02-12 19:29:00,78.1,64.0,29.93,SW,232,0.0,3.0,62,0.00,,---,0.00,VWS V14.00,2013-02-13 00:29:00,
2013-02-12 19:30:00,75.9,66.2,29.94,WSW,254,1.0,4.0,72,0.00,,---,0.00,VWS V14.00,2013-02-13 00:30:00,
2013-02-12 19:34:00,78.0,64.4,29.93,South,191,0.0,3.0,63,0.00,,---,0.00,VWS V14.00,2013-02-13 00:34:00,
2013-02-12 19:39:00,77.9,64.8,29.93,SW,231,0.0,3.0,64,0.00,,---,0.00,VWS V14.00,2013-02-13 00:39:00,
2013-02-12 19:44:00,77.7,65.0,29.94,WSW,244,0.0,5.0,65,0.00,,---,0.00,VWS V14.00,2013-02-13 00:44:00,
2013-02-12 19:49:00,77.5,64.8,29.94,SSW,199,0.0,5.0,65,0.00,,---,0.00,VWS V14.00,2013-02-13 00:49:00,
2013-02-12 19:54:00,77.3,65.1,29.94,WSW,242,0.0,5.0,66,0.00,,---,0.00,VWS V14.00,2013-02-13 00:54:00,
2013-02-12 19:59:00,77.3,65.5,29.94,SSW,192,0.0,5.0,67,0.00,,---,0.00,VWS V14.00,2013-02-13 00:59:00,
2013-02-12 20:00:00,74.6,66.5,29.95,WSW,253,0.0,5.0,76,0.00,,---,0.00,VWS V14.00,2013-02-13 01:00:00,
2013-02-12 20:04:00,77.1,65.7,29.94,SSW,197,0.0,4.0,68,0.00,,---,0.00,VWS V14.00,2013-02-13 01:04:00,
2013-02-12 20:09:00,76.9,65.5,29.94,SW,232,0.0,4.0,68,0.00,,---,0.00,VWS V14.00,2013-02-13 01:09:00,
2013-02-12 20:15:00,76.7,65.8,29.94,WSW,243,0.0,4.0,69,0.00,,---,0.00,VWS V14.00,2013-02-13 01:15:00,
2013-02-12 20:20:00,76.5,66.0,29.94,WSW,237,0.0,4.0,70,0.00,,---,0.00,VWS V14.00,2013-02-13 01:20:00,
2013-02-12 20:25:00,76.2,66.1,29.94,SW,235,0.0,4.0,71,0.00,,---,0.00,VWS V14.00,2013-02-13 01:25:00,
2013-02-12 20:30:00,76.0,65.9,29.94,SW,222,0.0,4.0,71,0.00,,---,0.00,VWS V14.00,2013-02-13 01:30:00,
2013-02-12 20:35:00,75.7,66.0,29.94,SW,234,0.0,4.0,72,0.00,,---,0.00,VWS V14.00,2013-02-13 01:35:00,
2013-02-12 20:40:00,75.5,66.6,29.94,SW,230,0.0,5.0,74,0.00,,---,0.00,VWS V14.00,2013-02-13 01:40:00,
2013-02-12 20:45:00,75.2,66.3,29.95,WSW,249,1.0,5.0,74,0.00,,---,0.00,VWS V14.00,2013-02-13 01:45:00,
2013-02-12 20:50:00,75.0,66.6,29.95,WSW,244,0.0,5.0,75,0.00,,---,0.00,VWS V14.00,2013-02-13 01:50:00,
2013-02-12 20:55:00,74.8,66.3,29.95,SSW,206,0.0,5.0,75,0.00,,---,0.00,VWS V14.00,2013-02-13 01:55:00,
2013-02-12 21:00:00,74.6,66.5,29.95,SSW,192,0.0,5.0,76,0.00,,---,0.00,VWS V14.00,2013-02-13 02:00:00,
2013-02-12 21:05:00,74.4,66.3,29.95,SSW,207,0.0,4.0,76,0.00,,---,0.00,VWS V14.00,2013-02-13 02:05:00,
2013-02-12 21:10:00,74.2,66.5,29.95,WSW,237,0.0,4.0,77,0.00,,---,0.00,VWS V14.00,2013-02-13 02:10:00,
2013-02-12 21:15:00,74.0,66.3,29.95,SW,219,0.0,4.0,77,0.00,,---,0.00,VWS V14.00,2013-02-13 02:15:00,
2013-02-12 21:20:00,73.9,66.6,29.94,SW,227,0.0,5.0,78,0.00,,---,0.00,VWS V14.00,2013-02-13 02:20:00,
2013-02-12 21:25:00,73.7,66.8,29.95,SW,217,0.0,5.0,79,0.00,,---,0.00,VWS V14.00,2013-02-13 02:25:00,
2013-02-12 21:30:00,73.5,66.6,29.95,SSW,205,0.0,5.0,79,0.00,,---,0.00,VWS V14.00,2013-02-13 02:30:00,
2013-02-12 21:35:00,73.3,66.8,29.95,SW,219,0.0,1.0,80,0.00,,---,0.00,VWS V14.00,2013-02-13 02:35:00,
2013-02-12 21:40:00,73.2,66.7,29.95,SSW,200,0.0,3.0,80,0.00,,---,0.00,VWS V14.00,2013-02-13 02:40:00,
2013-02-12 21:45:00,73.1,66.6,29.95,SW,225,0.0,5.0,80,0.00,,---,0.00,VWS V14.00,2013-02-13 02:45:00,
2013-02-12 21:50:00,72.9,66.7,29.96,SW,218,0.0,5.0,81,0.00,,---,0.00,VWS V14.00,2013-02-13 02:50:00,
2013-02-12 21:55:00,72.7,66.5,29.96,SW,222,0.0,5.0,81,0.00,,---,0.00,VWS V14.00,2013-02-13 02:55:00,
2013-02-12 22:00:00,71.6,66.2,29.96,SW,220,0.0,5.0,83,0.00,,---,0.00,VWS V14.00,2013-02-13 03:00:00,
2013-02-12 22:01:00,72.6,66.4,29.96,SSW,194,0.0,5.0,81,0.00,,---,0.00,VWS V14.00,2013-02-13 03:01:00,
2013-02-12 22:06:00,72.5,66.3,29.96,South,170,0.0,1.0,81,0.00,,---,0.00,VWS V14.00,2013-02-13 03:06:00,
2013-02-12 22:11:00,72.4,66.2,29.96,SSW,209,0.0,4.0,81,0.00,,---,0.00,VWS V14.00,2013-02-13 03:11:00,
2013-02-12 22:16:00,72.3,66.2,29.96,WSW,238,0.0,4.0,81,0.00,,---,0.00,VWS V14.00,2013-02-13 03:16:00,
2013-02-12 22:21:00,72.3,66.2,29.96,SW,228,0.0,7.0,81,0.00,,---,0.00,VWS V14.00,2013-02-13 03:21:00,
2013-02-12 22:26:00,72.2,66.1,29.96,South,188,0.0,7.0,81,0.00,,---,0.00,VWS V14.00,2013-02-13 03:26:00,
2013-02-12 22:30:00,71.0,66.3,29.96,SW,221,0.0,4.0,85,0.00,,---,0.00,VWS V14.00,2013-02-13 03:30:00,
2013-02-12 22:31:00,72.1,65.9,29.96,SW,214,0.0,7.0,81,0.00,,---,0.00,VWS V14.00,2013-02-13 03:31:00,
2013-02-12 22:36:00,72.1,66.3,29.96,South,182,5.0,5.0,82,0.00,,---,0.00,VWS V14.00,2013-02-13 03:36:00,
2013-02-12 22:41:00,72.0,66.2,29.96,SW,230,0.0,5.0,82,0.00,,---,0.00,VWS V14.00,2013-02-13 03:41:00,
2013-02-12 22:46:00,71.9,66.1,29.96,SW,221,3.0,5.0,82,0.00,,---,0.00,VWS V14.00,2013-02-13 03:46:00,
2013-02-12 22:51:00,71.8,66.4,29.96,SW,215,2.0,5.0,83,0.00,,---,0.00,VWS V14.00,2013-02-13 03:51:00,
2013-02-12 22:56:00,71.7,66.3,29.96,South,187,3.0,5.0,83,0.00,,---,0.00,VWS V14.00,2013-02-13 03:56:00,
2013-02-12 23:00:00,70.5,66.4,29.96,SSW,210,0.0,3.0,87,0.00,,---,0.00,VWS V14.00,2013-02-13 04:00:00,
2013-02-12 23:01:00,71.6,66.2,29.96,SW,219,0.0,0.0,83,0.00,,---,0.00,VWS V14.00,2013-02-13 04:01:00,
2013-02-12 23:06:00,71.5,66.1,29.96,SW,226,0.0,1.0,83,0.00,,---,0.00,VWS V14.00,2013-02-13 04:06:00,
2013-02-12 23:11:00,71.3,66.2,29.96,SW,220,0.0,1.0,84,0.00,,---,0.00,VWS V14.00,2013-02-13 04:11:00,
2013-02-12 23:16:00,71.2,66.1,29.96,SW,226,3.0,4.0,84,0.00,,---,0.00,VWS V14.00,2013-02-13 04:16:00,
2013-02-12 23:21:00,71.1,66.4,29.96,SSW,194,0.0,4.0,85,0.00,,---,0.00,VWS V14.00,2013-02-13 04:21:00,
2013-02-12 23:26:00,71.1,66.4,29.96,SW,221,0.0,4.0,85,0.00,,---,0.00,VWS V14.00,2013-02-13 04:26:00,
2013-02-12 23:30:00,70.1,66.7,29.95,WSW,238,0.0,6.0,89,0.00,,---,0.00,VWS V14.00,2013-02-13 04:30:00,
2013-02-12 23:32:00,71.0,66.3,29.96,SW,221,0.0,0.0,85,0.00,,---,0.00,VWS V14.00,2013-02-13 04:32:00,
2013-02-12 23:37:00,70.8,66.4,29.96,SSW,209,0.0,1.0,86,0.00,,---,0.00,VWS V14.00,2013-02-13 04:37:00,
2013-02-12 23:42:00,70.7,66.3,29.96,SSW,209,0.0,1.0,86,0.00,,---,0.00,VWS V14.00,2013-02-13 04:42:00,
2013-02-12 23:47:00,70.7,66.3,29.96,SSW,192,0.0,1.0,86,0.00,,---,0.00,VWS V14.00,2013-02-13 04:47:00,
2013-02-12 23:52:00,70.6,66.6,29.96,SW,228,0.0,1.0,87,0.00,,---,0.00,VWS V14.00,2013-02-13 04:52:00,
2013-02-12 23:57:00,70.5,66.4,29.96,South,182,0.0,3.0,87,0.00,,---,0.00,VWS V14.00,2013-02-13 04:57:00,